DECAYED

COSMOS 2251 DEB, 35280 (Decayed)

Orbit data source: Space-Track

COSMOS 2251 DEB, 35280 was space debris in LEO originally from a launch on Wed, 16 Jun 1993 UTC launched from the Plesetsk Missile And Space Complex (PKMTR). The debris from Iridium 33, an American commercial communications satellite, has been tracked extensively since its accidental collision with the defunct Russian satellite Cosmos 2251 in 2009. This event, occurring at high speed in low Earth orbit (LEO), generated thousands of pieces of space debris, significantly increasing the risk of further collisions. The Iridium 33 debris cloud has impacted space traffic management and orbital debris mitigation strategies, making it a subject of ongoing study in space situational awareness.

Not visible in the next 10 days
Identifier
35280, 1993-036AJJ
Orbit
Decayed
Country
Flag of CISCIS
Related business
Manufacturer
Unknown
Mission
Decayed spacecraft
Bus & Motor
Unknown
Mass
Unknown
Launch date (UTC)
1993-06-16 (33 years ago)
Launch vehicle
Unknown
Launch site
Plesetsk Missile And Space Complex (PKMTR)
Object type
Payload
Rocket body
Debris
Shape & HBR
Unknown shape, 0.1 m
Radar Cross Section
Small (<0.1 m²)

Expand to show TLE details & history
Last TLE update: 9 months ago

TLE from 9 months ago
0 COSMOS 2251 DEB
1 35280U 93036AJJ 25316.23891768  .01068411  00000-0  18411-1 0  9997
2 35280  73.9815 131.6560 0006388 153.4254 206.7286 15.48119691870746
Epoch: 2025-11-12T05:44Z
TLE epoch observation values (Epoch: 2025-11-12T05:44:02.487Z)
Latitude
-0.00008°
Longitude
-5.96836°
Altitude
428.85 km
Speed
7.652 km/s
True Right ascension
08h 46m 37s
True Declination
0° 00' 00"
Sunlit
Object was in daylight at epoch
Visualization orbit readout
Latitude
Unknown
Longitude
Unknown
Altitude
Unknown
Speed
Unknown
Apparent Right ascension
Unknown
Apparent Declination
Unknown
Sunlit
N/A
Visualization observer readout
Local Sidereal Time
11:10:50
Azimuth
Unknown
Elevation
Unknown
Doppler factor
Unknown
Orbital elements
Apogee altitude
424.076 km
Perigee altitude
415.391 km
Semi-major axis
6,797.87 km
Eccentricity
0.00064
Inclination
73.9815°
RAAN
131.656°
Arg. of periapsis
153.4254°
True anomaly
206.6957°
Mean anomaly
206.7286°
Eccentric anomaly
206.71215°
Mean motion
3.87243 °/min
Orbital period
92.96 mins
BSTAR
0.018411
Loading maneuver chart data...
Computing Atmospheric mass density...

Documentation

Showing up to 5 results
|